Location: Rotheul
(50.2849°N, 11.2349°E)
Time: 16:39:40
(UTC+02:00)

ISS - Pass Details

Date: 17 July 2018
Orbit: 402 x 408 km, 51.6° (Epoch: 20 July)

Event Time Altitude Azimuth Distance (km) Brightness Sun altitude
Exits shadow 01:41:07 42° 255° (WSW) 592 -3.2 -18.3°
Maximum altitude 01:42:06 90° 234° (SW) 412 -3.9 -18.3°
Drops below altitude 10° 01:45:24 10° 76° (ENE) 1,471 -0.8 -18.3°
Sets 01:47:30 0° 76° (ENE) 2,334 0.3 -18.2°
